Theta_e
310 310 310 310 310 311 311 311 312 312 312 312 312 312 312 312 312 311 312 312 313 315 315 315 315 315 315 316 317 317 310 310 313 312 314 315 314 316 316 316 316 317 317 318 318
310 310 310 310 311 311 311 312 312 312 312 312 312 313 313 313 313 313 314 313 311 314 316 315 315 315 315 316 317 315 308 310 309 311 313 315 315 316 315 315 315 316 317 317 317
310 311 311 311 311 312 312 312 312 312 312 312 313 313 313 313 313 312 314 313 313 313 315 315 314 316 315 316 317 314 313 310 313 314 316 315 314 317 314 312 317 317 317 317 317
312 312 312 312 312 312 312 312 312 312 312 313 313 313 313 313 310 313 314 313 313 313 314 314 315 316 314 314 316 315 315 314 315 317 316 314 315 314 314 317 318 317 317 317 317
312 312 312 312 311 311 312 312 312 313 313 313 313 313 314 312 314 315 314 313 312 313 314 313 314 315 313 312 314 313 313 316 317 316 317 316 314 313 314 318 317 318 316 316 316
309 309 309 309 310 310 310 310 310 310 310 310 311 312 313 310 314 314 314 314 313 314 314 313 313 314 314 314 313 313 314 313 315 315 315 314 315 313 316 316 316 316 316 316 315
312 313 313 314 314 315 315 315 316 315 314 312 309 307 308 312 314 314 314 314 313 313 314 314 314 313 313 312 313 314 312 309 309 312 311 313 311 310 315 315 315 316 315 315 316
314 313 313 313 313 313 313 313 314 315 315 315 313 308 307 310 310 311 313 313 312 313 312 312 312 312 313 312 311 310 309 310 309 309 312 312 311 311 314 314 314 315 315 316 317
314 313 313 311 311 311 312 312 311 310 311 311 311 309 309 314 311 310 310 312 312 312 311 311 311 312 311 307 308 306 308 307 307 309 310 309 310 309 313 313 314 315 315 315 316
320 319 318 318 318 319 320 320 318 311 309 309 309 309 312 314 312 311 312 312 312 311 311 311 312 308 306 307 309 308 306 306 307 308 307 308 308 309 313 310 312 312 313 314 314
321 321 322 322 323 323 322 321 314 312 311 311 312 311 313 311 312 312 313 312 311 311 308 310 307 308 309 307 308 307 306 306 306 308 309 309 309 309 310 310 310 311 311 312 313
322 322 322 322 322 322 321 318 312 311 310 317 316 312 313 313 313 313 312 311 311 309 306 308 307 307 307 307 307 307 308 308 308 309 306 307 309 309 309 310 311 311 311 312 312
324 325 324 324 324 324 321 318 315 308 309 313 316 313 314 311 311 312 312 311 309 307 306 309 309 308 308 308 308 306 307 308 308 307 306 306 308 307 307 308 310 311 311 311 312
323 323 324 324 323 323 323 321 316 311 312 311 308 309 308 308 308 310 311 311 308 309 307 307 308 308 307 308 307 309 307 308 308 308 309 308 311 308 311 310 306 309 311 313 314
321 322 323 322 323 323 323 323 318 314 325 313 308 309 310 307 308 308 310 310 308 308 306 309 308 308 309 309 307 309 308 308 308 307 307 308 307 311 308 308 308 307 311 313 314
321 321 321 321 322 321 323 322 318 318 326 317 308 308 309 309 308 308 309 309 308 307 306 306 307 307 308 307 306 308 309 307 304 306 310 309 308 310 308 309 309 309 314 314 313
321 320 321 321 321 321 321 321 320 322 318 317 310 308 308 308 309 307 308 308 307 309 307 306 306 307 307 308 307 308 308 309 309 309 313 307 308 312 309 308 309 310 313 314 313
316 316 316 317 320 321 320 319 319 320 321 315 310 308 311 307 310 307 306 306 305 306 304 307 315 306 305 307 309 306 307 308 308 310 314 307 312 313 308 309 311 309 310 312 312
311 310 311 314 315 316 318 321 320 320 318 318 318 319 317 310 311 312 306 306 306 305 310 306 309 306 304 306 307 306 308 307 308 298 303 311 310 312 309 307 307 308 309 311 310
307 306 307 309 309 314 316 319 318 317 317 317 321 320 319 314 311 310 310 307 307 305 306 309 309 307 306 306 306 307 306 308 305 311 309 311 310 313 312 310 308 306 306 311 312
303 302 306 306 308 314 314 316 315 316 316 317 319 319 317 318 315 316 317 313 307 307 306 308 311 314 310 306 307 305 307 307 307 310 315 316 314 313 311 309 307 309 311 311 311
299 303 304 309 311 312 312 311 312 313 314 314 315 317 318 317 317 317 318 316 315 313 315 308 312 314 314 311 307 308 312 312 313 314 310 312 314 312 311 310 309 310 311 308 304
302 304 306 311 310 310 310 310 311 311 311 312 313 313 312 313 314 314 314 312 310 311 312 311 313 315 313 310 307 310 310 310 311 312 313 314 314 310 310 310 310 306 304 302 301
301 300 304 308 307 308 309 309 309 310 311 311 311 311 311 312 312 313 312 309 305 306 308 309 311 312 314 312 308 309 307 306 306 307 309 309 313 312 308 304 297 297 295 295 294
297 298 300 305 303 305 306 308 308 307 309 308 309 310 309 311 310 310 306 301 302 302 303 304 304 305 303 302 302 302 302 302 303 304 305 305 306 304 296 295 296 294 293 292 292
296 296 297 298 298 300 301 303 304 305 306 306 308 305 304 307 304 304 298 300 299 298 297 298 299 299 298 299 298 298 297 298 299 299 301 305 304 294 293 293 294 293 292 291 291
293 294 295 295 296 296 297 299 297 297 297 298 296 297 298 299 295 294 295 295 296 295 295 295 294 289 297 297 294 293 294 295 296 296 296 299 295 293 292 292 291 291 292 290 289
Wind_Speed
7 7 8 8 9 9 9 9 9 9 10 10 11 11 12 12 14 15 17 11 10 10 11 7 7 6 5 4 4 4 3 2 5 5 5 2 1 2 4 6 7 9 18 18 15
8 8 9 9 10 10 10 11 11 11 12 12 13 14 15 16 18 21 11 13 10 9 11 9 9 7 4 4 4 4 4 8 7 5 5 6 4 10 4 7 12 17 24 25 25
9 10 10 11 12 12 12 13 13 13 13 13 14 15 16 17 18 2 3 7 0 9 10 10 9 8 4 4 7 5 6 5 7 16 14 7 7 13 4 7 26 21 25 22 25
12 12 13 13 14 14 15 15 15 15 15 15 15 16 17 15 6 1 6 15 12 10 14 12 9 5 4 5 8 3 14 12 6 8 7 5 9 7 13 34 36 30 26 30 30
14 15 15 15 16 16 17 17 18 18 17 17 16 16 17 11 19 22 20 14 11 11 16 15 13 8 5 5 3 5 6 14 23 21 22 21 26 14 19 44 42 38 36 35 33
15 15 16 17 18 18 19 19 19 20 20 19 19 19 17 11 14 11 11 12 12 11 16 17 8 12 6 6 7 3 7 13 18 21 18 9 25 4 28 39 39 35 35 33 31
15 15 16 17 17 19 20 21 22 21 21 19 18 19 21 33 22 22 23 23 18 15 16 16 18 8 3 3 5 5 7 9 9 14 7 10 12 10 38 31 34 34 34 32 31
14 14 15 16 17 18 19 21 22 22 21 20 19 17 16 23 24 26 25 27 19 15 15 13 12 15 11 4 3 3 2 4 2 7 3 10 10 22 30 23 30 30 30 27 31
11 11 12 13 15 16 17 19 20 20 19 17 16 13 12 18 18 20 23 21 17 15 12 8 11 8 3 5 4 2 5 8 11 17 5 8 8 12 17 14 20 33 38 41 39
10 11 12 13 14 16 15 16 16 15 13 10 12 5 17 15 9 10 12 15 11 11 8 8 6 3 2 3 7 8 6 6 7 5 5 7 15 13 40 18 33 37 45 48 50
11 11 12 14 15 16 17 15 6 4 3 8 4 9 13 9 13 8 10 14 9 8 6 4 4 8 21 12 2 1 5 7 9 12 4 15 18 20 26 32 33 37 38 45 51
13 13 13 16 18 18 16 7 8 9 13 17 21 29 30 30 9 13 12 11 8 6 7 2 7 13 2 4 7 9 12 15 13 18 5 14 19 19 20 26 39 40 43 39 38
17 17 15 16 19 19 12 9 13 14 6 11 22 19 27 21 14 15 15 9 5 7 8 11 6 9 7 5 8 6 7 17 13 7 6 9 11 9 10 16 33 44 42 38 39
17 18 18 16 14 8 9 10 13 14 4 7 4 3 5 5 4 12 19 10 4 9 6 7 6 7 3 7 11 16 12 13 11 4 4 5 10 3 13 15 10 25 34 37 35
15 12 9 14 10 13 13 10 9 6 8 3 2 1 3 5 1 2 11 6 4 5 6 8 5 4 5 10 7 10 5 5 2 4 5 3 4 3 4 6 10 9 23 28 25
16 13 17 15 16 15 11 13 3 2 10 2 2 1 3 1 0 2 3 2 1 3 4 8 3 5 7 5 9 2 1 3 3 2 7 12 9 3 4 6 4 3 14 13 17
12 11 11 11 11 10 8 4 2 6 5 1 1 2 2 3 1 3 3 3 5 1 3 2 5 4 5 3 0 3 4 4 4 1 10 2 5 12 6 9 6 11 19 17 16
15 14 14 12 10 10 9 2 8 3 5 3 1 2 4 5 2 3 2 3 5 2 2 4 13 8 5 9 8 7 8 5 7 6 12 3 14 11 8 8 14 12 11 9 17
17 17 19 15 12 12 7 7 5 5 4 3 5 3 4 3 4 2 5 5 7 13 8 5 8 2 6 3 6 5 5 3 3 2 1 11 20 19 12 7 3 6 3 13 22
21 21 25 21 16 14 5 12 6 7 3 3 5 3 4 3 4 5 5 3 4 8 4 3 11 5 1 3 1 5 3 1 2 3 11 12 7 20 15 10 8 9 15 28 37
18 7 6 8 17 12 10 7 8 17 13 5 5 10 7 4 6 11 5 4 3 3 2 4 2 9 1 6 9 2 3 3 2 5 12 12 11 16 10 6 9 12 24 25 33
7 2 4 15 10 7 10 6 5 16 5 4 2 5 12 10 8 9 9 8 2 2 9 6 3 6 14 12 7 7 20 22 13 9 9 17 19 23 20 14 10 21 31 28 24
5 3 5 20 6 9 8 7 6 3 10 5 7 7 12 16 16 18 9 2 0 3 1 3 3 8 16 3 5 0 4 7 14 17 26 21 17 4 14 21 27 25 21 27 30
3 2 4 15 17 5 6 15 15 11 10 13 10 14 16 18 14 9 6 1 6 2 0 3 5 10 10 15 7 8 11 19 16 9 14 17 19 12 17 18 27 28 27 25 28
5 2 2 3 6 7 6 9 12 8 5 5 3 5 4 7 8 7 2 6 4 7 3 1 5 2 13 14 17 16 19 23 22 23 21 27 27 10 11 13 14 25 30 29 29
5 2 3 5 6 2 4 9 16 16 7 9 9 5 1 5 0 4 3 1 3 3 1 2 5 6 13 22 9 18 22 22 25 27 26 21 17 5 8 16 19 23 26 33 36
5 6 2 3 0 2 3 3 3 2 10 7 8 5 4 0 1 5 9 11 9 6 4 3 3 2 15 20 10 10 14 15 10 8 5 6 4 6 8 13 16 20 18 22 28
Wind_Direction
326 329 329 331 333 333 333 333 334 334 333 332 331 329 326 324 316 306 296 286 266 243 237 236 225 220 206 200 190 153 66 248 252 187 257 286 310 273 267 259 243 234 247 266 272
307 312 314 315 316 317 317 318 319 320 321 322 323 323 323 323 318 309 298 271 252 245 234 236 226 209 189 194 192 144 144 223 214 206 240 287 252 290 257 260 263 261 269 270 269
296 298 299 300 302 302 302 303 304 304 307 309 312 314 318 323 323 325 55 36 343 244 229 227 221 204 208 197 198 183 211 219 250 247 268 280 275 271 216 265 264 261 289 289 280
292 292 292 293 293 293 293 292 293 296 298 300 304 307 309 314 305 274 304 308 300 243 224 216 200 188 203 210 205 217 240 234 257 260 271 256 280 250 218 267 288 284 282 278 273
287 288 288 287 286 287 287 287 288 287 286 288 290 293 299 289 272 288 287 286 276 251 227 218 205 194 200 206 205 215 237 252 266 277 277 276 265 250 256 281 286 282 280 277 273
283 285 287 290 291 290 288 287 285 283 283 282 281 281 283 262 280 276 277 279 276 254 230 221 219 228 260 220 189 263 265 277 284 273 263 217 270 221 269 279 283 284 282 282 275
287 288 288 288 288 289 290 290 287 286 284 282 280 275 269 262 272 272 273 276 268 253 243 234 225 216 215 262 254 278 311 310 235 260 233 215 291 230 275 281 285 287 287 287 282
286 289 291 291 291 291 293 293 290 287 283 279 275 272 260 276 270 261 259 260 255 242 240 239 229 237 243 269 314 311 166 307 271 138 252 165 252 273 289 278 278 288 289 291 294
292 297 301 299 299 304 309 304 301 294 286 277 265 250 264 265 265 264 255 251 250 238 221 218 197 212 204 108 7 328 242 229 304 203 152 189 250 270 292 270 275 283 281 283 281
302 309 312 311 311 312 318 315 307 298 284 271 247 248 249 253 260 258 243 225 213 201 179 188 193 134 51 120 229 225 228 254 247 301 184 241 256 277 283 279 272 277 279 278 277
301 308 314 314 317 321 323 335 320 297 285 235 250 245 292 267 252 254 226 199 183 172 172 180 149 193 227 206 285 169 252 248 266 276 299 268 268 275 275 284 274 270 267 270 272
298 303 313 319 322 324 330 357 348 308 300 269 260 253 260 260 259 239 216 183 176 190 121 73 226 224 85 165 228 250 269 269 273 264 205 269 273 268 265 257 264 271 275 270 276
290 292 301 315 317 316 329 344 344 335 266 270 249 252 247 250 238 236 205 197 169 165 202 213 211 208 194 173 239 219 219 260 261 320 250 297 273 230 261 253 260 265 265 273 274
292 270 280 292 307 312 326 336 346 339 290 272 250 235 208 187 252 221 196 210 189 217 195 242 258 196 150 215 213 266 224 250 266 359 248 16 297 305 260 270 245 264 273 279 282
283 306 289 299 278 297 296 311 332 345 290 251 192 219 178 183 84 23 199 218 182 173 137 245 188 172 186 219 145 241 199 227 189 207 337 228 267 236 152 260 270 278 285 289 292
274 278 282 287 288 291 277 295 291 173 246 302 125 67 118 218 57 84 150 168 69 168 209 245 287 179 221 234 182 48 42 50 67 102 270 203 198 96 164 194 240 228 304 286 330
257 259 262 274 281 297 282 289 300 229 342 294 254 184 192 203 274 163 138 177 202 319 243 249 227 242 176 222 50 146 76 308 318 43 255 172 228 251 237 223 213 282 280 279 333
266 267 262 252 262 266 280 204 219 236 267 299 22 68 263 186 162 66 27 273 239 139 192 236 282 187 174 199 191 180 167 167 238 261 282 89 261 270 212 248 251 274 291 297 326
270 268 267 264 260 260 241 221 219 190 233 307 327 277 258 239 187 112 193 233 233 190 202 219 258 200 204 152 149 172 179 195 292 7 306 266 277 282 219 284 285 290 347 312 329
271 271 266 268 258 230 227 245 248 213 3 344 262 229 247 237 169 168 208 204 248 209 63 298 299 212 289 95 50 174 187 52 357 256 258 268 273 262 302 307 319 323 343 333 324
269 264 247 209 213 202 235 235 236 243 248 251 249 269 243 231 225 262 230 306 301 44 205 16 138 254 9 195 195 89 250 243 231 203 250 261 257 273 291 305 329 315 313 321 316
196 214 196 183 190 208 234 233 195 253 242 246 275 256 263 277 282 274 249 202 291 24 278 205 214 251 253 242 202 210 253 241 244 246 231 254 260 284 295 309 314 314 317 351 16
181 248 193 186 220 225 247 280 272 256 242 261 269 241 264 265 269 252 257 224 121 130 252 83 227 291 290 67 20 141 335 295 307 269 260 267 266 285 320 324 323 11 17 8 5
178 264 207 220 237 265 263 263 261 255 253 240 247 262 275 269 266 273 275 305 358 22 121 161 222 230 264 280 333 285 326 305 284 280 300 294 308 321 320 343 342 8 29 23 18
197 229 193 207 253 267 269 274 279 282 230 352 282 244 294 282 279 256 305 6 30 20 63 117 258 328 304 292 303 306 283 275 271 272 264 281 282 322 15 356 352 353 1 4 7
186 187 210 280 286 265 201 251 260 277 274 269 252 343 262 241 356 349 6 105 296 359 70 354 285 348 290 288 294 288 287 271 267 269 269 268 275 35 14 9 5 347 349 349 346
220 213 195 254 179 151 246 312 34 32 54 61 54 1 338 143 16 287 255 249 248 261 221 222 213 100 273 286 324 288 252 263 279 348 327 286 42 8 349 345 327 312 327 341 338